Simultaneous Nadir Overpasses (SNOs) Predictions

Prediction of SNOs between FY3D and NOAA-19 Satellite Orbit:

Table of predicted SNOs for the next 14.0 days since TLE Epoch: 10/26/2024
Index Date (FY3D) Time (FY3D) Lat,Lon (FY3D) SZA (FY3D ) Date (NOAA-19) Time (NOAA-19) Lat,Lon (NOAA-19) SZA (NOAA-19 ) Distance(km) Time Diff (sec)
1 11/07/2024 02:26:21 -75.74, -33.59 87.86 11/07/2024 02:25:11 -75.71, -35.42 87.94 50.43 70
2 11/07/2024 03:17:12 75.99, 132.84 92.39 11/07/2024 03:16:05 76.00, 132.84 92.39 0.54 67
3 11/07/2024 04:07:57 -76.00, -59.87 87.60 11/07/2024 04:07:02 -75.99, -59.92 87.61 1.76 55
4 11/07/2024 04:58:43 76.03, 107.33 92.45 11/07/2024 04:58:02 76.01, 107.40 92.43 2.88 41
5 11/07/2024 05:49:28 -76.04, -85.38 87.54 11/07/2024 05:48:59 -76.00, -85.36 87.58 3.91 29
6 11/07/2024 06:40:13 76.02, 81.99 92.46 11/07/2024 06:39:59 76.02, 81.97 92.46 0.59 14
7 11/07/2024 07:30:58 -76.03,-110.72 87.53 11/07/2024 07:30:56 -76.02,-110.80 87.54 2.67 2
8 11/07/2024 08:21:43 76.06, 56.48 92.52 11/07/2024 08:21:55 76.04, 56.53 92.50 2.82 12
9 11/07/2024 09:12:28 -76.07,-136.23 87.47 11/07/2024 09:12:51 -76.07,-136.08 87.46 4.02 23
10 11/07/2024 10:03:13 76.05, 31.13 92.53 11/07/2024 10:03:52 76.05, 31.09 92.53 1.20 39
11 11/07/2024 10:53:58 -76.06,-161.58 87.46 11/07/2024 10:54:48 -76.09,-161.52 87.43 3.18 50
12 11/07/2024 11:44:44 76.09, 5.62 92.58 11/07/2024 11:45:49 76.06, 5.65 92.57 2.95 65
13 11/07/2024 12:35:31 -76.19, 172.59 87.32 11/07/2024 12:36:44 -76.14, 173.20 87.34 16.94 73



Historial Predications of SNOs between FY3D and NOAA-19
